Regional Weather Roundup
Issued by NWS Sterling, VA

Home | Current Version | Previous Version | Text Only | Print | Product List | Glossary On
Versions: 1 2 3 4 5 6 7 8 9 10 11 12 13 14 15 16 17 18 19 20 21 22 23 24 25 26 27 28
000
ASUS41 KLWX 210210
RWRLWX

REGIONAL WEATHER ROUNDUP
NATIONAL WEATHER SERVICE BALTIMORE MD/WASHINGTON DC
1000 PM EDT SUN APR 20 2014

Note: "FAIR" indicates few or no clouds below 12,000 feet
with no significant weather and/or obstructions to visibility.
 TC=TEMPERATURE CELSIUS

 * =Non NWS site. Station does not report precipitation (e.g. rain,
    snow, etc.), thunder, or fog.

DCZ001-MDZ009-015-VAZ040>042-051-053>054-210300-
WASHINGTON METRO

CITY           SKY/WX    TMP DP  RH WIND       PRES   REMARKS
WASHINGTON NAT PTCLDY    53  34  48 E7        30.34S
DULLES         CLEAR     49  34  56 SE3       30.32S
ANDREWS AFB    CLEAR     47  34  59 E5        30.33F
FT BELVOIR     CLEAR     51  34  52 VRB2      30.34S
QUANTICO       CLEAR     53  36  52 E9        30.34S
COLLEGE PARK*  CLEAR     52  34  50 E3        30.34S
LEESBURG*      CLEAR     54  37  54 SE3       30.33S
MANASSAS*      CLEAR     52  36  54 E3        30.33R
GAITHERSBURG*  CLEAR     48  34  57 E6        30.35S

$$

MDZ006>007-011-014-210300-
BALTIMORE METRO

CITY           SKY/WX    TMP DP  RH WIND       PRES   REMARKS
BWI AIRPORT    CLEAR     49  34  56 E6        30.34R
MD SCIENCE CTR   N/A     52  34  50 MISG      30.35S
ANNAPOLIS      CLEAR     50  34  54 E9        30.34F
FORT MEADE*    CLEAR     45  34  65 E3        30.37R

$$

MDZ012-015-019>023-210300-
MARYLAND EASTERN SHORE

CITY           SKY/WX    TMP DP  RH WIND       PRES   REMARKS
OCEAN CITY     PTCLDY    45  36  70 NE16G22   30.32F
SALISBURY      PTCLDY    44  34  67 NE6       30.32F
BAY BRIDGE AP* CLEAR     46  32  57 E3        30.35F

$$

MDZ017>025-210300-
SOUTHERN MARYLAND

CITY           SKY/WX    TMP DP  RH WIND       PRES   REMARKS
PATUXENT RIVER CLEAR     46  25  43 NE12      30.32F
ST INIGOES     CLEAR     47  24  40 NE12      30.31F
LEONARDTOWN*   CLEAR     46  27  46 NE6       30.34F

$$

MDZ003>005-210300-
NORTH CENTRAL MARYLAND

CITY           SKY/WX    TMP DP  RH WIND       PRES   REMARKS
FREDERICK*     CLEAR     50  37  62 SE5       30.35S
HAGERSTOWN APT CLEAR     53  32  44 SE8       30.30S
WESTMINSTER*   CLEAR     52  34  50 SE6       30.33S

$$

MDZ501>502-210300-
WESTERN MARYLAND

CITY           SKY/WX    TMP DP  RH WIND       PRES   REMARKS
OAKLAND*       CLEAR     46  21  36 SE16      30.25S
CUMBERLAND*    CLEAR     55  30  38 S3        30.32S

$$

VAZ025>031-210300-
SHENANDOAH VALLEY

CITY           SKY/WX    TMP DP  RH WIND       PRES   REMARKS
WINCHESTER*    CLEAR     50  34  53 E3        30.30S
STAUNTON*      CLEAR     46  34  62 CALM      30.29S

$$

WVZ021-048>050-054>055-210300-
EASTERN WEST VIRGINIA PANHANDLE

CITY           SKY/WX    TMP DP  RH WIND       PRES   REMARKS
MARTINSBURG    CLEAR     53  32  44 SE3       30.31R
PETERSBURG*    CLEAR     50  39  65 W3        30.27S

$$

VAZ036>039-050-210300-
CENTRAL FOOTHILLS

CITY           SKY/WX    TMP DP  RH WIND       PRES   REMARKS
CHARLOTTESVILL CLEAR     53  33  46 NE7       30.29R
CULPEPER*      CLEAR     54  32  43 CALM      30.32S

$$

VAZ055>057-210300-
NORTH AND CENTRAL PIEDMONT

CITY           SKY/WX    TMP DP  RH WIND       PRES   REMARKS
FREDERICKSBRG* CLEAR     52  34  50 E3        30.31F
STAFFORD*      CLEAR     49  37  63 E5        30.36F

$$

NCZ024-NYZ072-PAZ021-071-VAZ022-071-210300-
OTHER REGIONAL OBSERVATIONS

CITY           SKY/WX    TMP DP  RH WIND       PRES   REMARKS
NEW YORK CITY  CLEAR     48  25  40 VRB3      30.40F
PHILADELPHIA   CLEAR     47  20  34 E8        30.38S
PITTSBURGH     PTCLDY    63  25  23 SE8       30.17S
ROANOKE        PTCLDY    58  31  35 SE3       30.27R
RICHMOND       MOCLDY    50  31  48 NE8       30.29S
RALEIGH        CLOUDY    57  35  43 NE6       30.23S

$$

ANZ530>537-210300-
MARINE OBSERVATIONS

STATION/POSITION TIME  TEMP    WIND        PRES
                       AIR SEA DIR/SP/G
                 (UTC) (F)     (DEG/KT/KT) (MB)
THOMAS PT LIGHT  0200   49 54   90/ 12/ 13 1027.9S
BALT KEY BRIDGE  0200   51     100/ 10/ 12 1027.7R
COVE POINT       0200   48      70/ 10/ 12 1026.9F
LEWISETTA        0200   49 56   60/ 13/ 18 1026.2S
SOLOMONS ISLAND  0200      53                N/A
PINEY POINT      0200           70/  7/ 11   N/A

$$




USA.gov is the U.S. government's official web portal to all federal, state and local government web resources and services.